Weather History for KIPJ - April, 2014

Change the Weather History Date:

Friday, April 4, 2014

  Actual Average (KCLT) Record (KCLT)
Temperature  
Mean Temperature 70 °F 56 °F  
Max Temperature 79 °F 69 °F 87 °F (1999)
Min Temperature 61 °F 44 °F 29 °F (1936)
Degree Days  
Heating Degree Days 0 9  
Month to date heating degree days 38  
Since 1 July heating degree days 3170  
Cooling Degree Days 5 1  
Month to date cooling degree days 3  
Year to date cooling degree days 8  
Growing Degree Days 20 (Base 50)    
Moisture  
Dew Point 49 °F    
Average Humidity 49    
Maximum Humidity 64    
Minimum Humidity 29    
Precipitation  
Precipitation 0.00 in 0.11 in 1.58 in (1974)
Month to date precipitation 0.44  
Year to date precipitation 11.18  
Snow  
Snow 0.00 in 0.00 in T in (1987)
Month to date snowfall 0.0  
Since 1 July snowfall 4.3  
Snow Depth -    
Sea Level Pressure  
Sea Level Pressure 29.85 in    
Wind  
Wind Speed 10 mph (WSW)    
Max Wind Speed 24 mph    
Max Gust Speed 34 mph    
Visibility 10 miles    
Events      
T = Trace of Precipitation, MM = Missing Value Source: NWS Daily Summary

Daily Weather History Graph

Daily Weather History Graph

Search for Another Location

Airport or City:

Trip Planner

Search our weather history database for the weather conditions in past years. The results will help you decide how hot, cold, wet, or windy it might be!

Date:

Astronomy

Apr. 04, 2014 Rise Set
Actual Time 7:07 AM EDT 7:48 PM EDT
Civil Twilight 6:41 AM EDT 8:14 PM EDT
Nautical Twilight 6:10 AM EDT 8:44 PM EDT
Astronomical Twilight 5:39 AM EDT 9:16 PM EDT
Moon 10:30 AM EDT (4/4) No Moon Set
Length of Visible Light 13h 33m
Length of Day
12h 41m
Waxing Crescent, 25% of the Moon is Illuminated
Apr 4
Waxing Crescent
Apr 7
First Quarter
Apr 15
Full
Apr 22
Last Quarter
Apr 29
New

Hourly Weather History & Observations

Time (EDT) Temp. Dew Point Humidity Pressure Visibility Wind Dir Wind Speed Gust Speed Precip Events Conditions
12:15 AM 71.8 °F 48.2 °F 43% 29.92 in 10.0 mi WSW 11.5 mph 18.4 mph N/A   Clear
12:35 AM 71.1 °F 47.7 °F 43% 29.92 in 10.0 mi SW 10.4 mph - N/A   Clear
12:55 AM 70.7 °F 47.3 °F 43% 29.92 in 10.0 mi WSW 8.1 mph - N/A   Clear
1:15 AM 69.8 °F 46.9 °F 44% 29.92 in 10.0 mi WSW 5.8 mph - N/A   Clear
1:35 AM 68.9 °F 46.4 °F 44% 29.92 in 10.0 mi SW 4.6 mph - N/A   Clear
1:55 AM 68.0 °F 46.4 °F 46% 29.92 in 10.0 mi WSW 4.6 mph - N/A   Clear
2:15 AM 67.3 °F 46.0 °F 46% 29.92 in 10.0 mi WSW 4.6 mph - N/A   Clear
2:35 AM 67.3 °F 45.9 °F 46% 29.91 in 10.0 mi SW 3.5 mph - N/A   Clear
2:55 AM 66.9 °F 45.9 °F 47% 29.91 in 10.0 mi WSW 3.5 mph - N/A   Clear
3:15 AM 66.2 °F 45.9 °F 48% 29.90 in 10.0 mi WSW 3.5 mph - N/A   Clear
3:35 AM 64.9 °F 45.9 °F 50% 29.90 in 10.0 mi WSW 3.5 mph - N/A   Clear
3:55 AM 62.4 °F 46.0 °F 55% 29.89 in 10.0 mi WSW 5.8 mph - N/A   Clear
4:15 AM 62.2 °F 46.4 °F 56% 29.88 in 10.0 mi WSW 4.6 mph - N/A   Clear
4:35 AM 62.6 °F 46.4 °F 55% 29.87 in 10.0 mi WSW 5.8 mph - N/A   Clear
4:55 AM 63.0 °F 46.9 °F 56% 29.86 in 10.0 mi WSW 8.1 mph - N/A   Clear
5:15 AM 64.8 °F 47.7 °F 54% 29.86 in 10.0 mi WSW 8.1 mph - N/A   Clear
5:35 AM 64.8 °F 47.8 °F 54% 29.86 in 10.0 mi WSW 9.2 mph - N/A   Clear
5:55 AM 63.9 °F 48.0 °F 56% 29.86 in 10.0 mi SW 8.1 mph - N/A   Clear
6:15 AM 64.4 °F 48.2 °F 56% 29.85 in 10.0 mi SW 4.6 mph - N/A   Clear
6:35 AM 62.8 °F 48.2 °F 59% 29.85 in 10.0 mi WSW 5.8 mph - N/A   Clear
6:55 AM 62.8 °F 48.7 °F 60% 29.85 in 10.0 mi WSW 4.6 mph - N/A   Clear
7:15 AM 62.8 °F 49.1 °F 61% 29.86 in 10.0 mi SW 4.6 mph - N/A   Clear
7:35 AM 62.1 °F 48.7 °F 62% 29.87 in 10.0 mi SW 5.8 mph - N/A   Clear
7:55 AM 61.7 °F 49.1 °F 63% 29.88 in 10.0 mi SW 4.6 mph - N/A   Clear
8:15 AM 62.2 °F 49.8 °F 64% 29.87 in 10.0 mi SW 4.6 mph - N/A   Clear
8:35 AM 64.0 °F 50.4 °F 61% 29.86 in 10.0 mi SW 4.6 mph - N/A   Clear
8:55 AM 64.9 °F 50.9 °F 60% 29.86 in 10.0 mi WSW 3.5 mph - N/A   Clear
9:15 AM 65.8 °F 51.3 °F 59% 29.86 in 10.0 mi WSW 5.8 mph - N/A   Clear
9:35 AM 66.0 °F 51.8 °F 60% 29.85 in 10.0 mi SW 9.2 mph - N/A   Clear
9:55 AM 66.7 °F 52.0 °F 59% 29.86 in 10.0 mi WSW 10.4 mph - N/A   Clear
10:15 AM 68.0 °F 52.7 °F 58% 29.86 in 10.0 mi SW 11.5 mph 18.4 mph N/A   Clear
10:35 AM 68.4 °F 52.7 °F 57% 29.87 in 10.0 mi SW 10.4 mph 18.4 mph N/A   Clear
10:55 AM 68.0 °F 53.4 °F 60% 29.88 in 10.0 mi WSW 12.7 mph 18.4 mph N/A   Clear
11:15 AM 68.4 °F 53.8 °F 60% 29.88 in 10.0 mi WSW 16.1 mph 20.7 mph N/A   Clear
11:35 AM 69.4 °F 54.1 °F 58% 29.88 in 10.0 mi WSW 15.0 mph 20.7 mph N/A   Clear
11:55 AM 70.5 °F 54.5 °F 57% 29.88 in 10.0 mi WSW 15.0 mph 20.7 mph N/A   Scattered Clouds
12:15 PM 69.8 °F 54.7 °F 59% 29.88 in 10.0 mi SW 12.7 mph 23.0 mph N/A   Scattered Clouds
12:35 PM 70.3 °F 54.7 °F 58% 29.88 in 10.0 mi WSW 17.3 mph 26.5 mph N/A   Mostly Cloudy
12:55 PM 71.8 °F 55.0 °F 55% 29.86 in 10.0 mi WSW 18.4 mph 26.5 mph N/A   Scattered Clouds
1:15 PM 73.8 °F 55.2 °F 52% 29.86 in 10.0 mi WSW 17.3 mph 33.4 mph N/A   Scattered Clouds
1:35 PM 74.3 °F 54.7 °F 50% 29.87 in 10.0 mi WSW 19.6 mph 26.5 mph N/A   Scattered Clouds
1:55 PM 75.4 °F 54.5 °F 48% 29.88 in 10.0 mi WSW 24.2 mph 29.9 mph N/A   Scattered Clouds
2:15 PM 75.6 °F 55.2 °F 49% 29.87 in 10.0 mi WSW 17.3 mph 24.2 mph N/A   Mostly Cloudy
2:35 PM 74.5 °F 55.4 °F 51% 29.87 in 10.0 mi WSW 18.4 mph 24.2 mph N/A   Overcast
2:55 PM 74.5 °F 55.8 °F 52% 29.87 in 10.0 mi West 12.7 mph - N/A   Overcast
3:15 PM 76.3 °F 55.6 °F 49% 29.85 in 10.0 mi WSW 13.8 mph 19.6 mph N/A   Scattered Clouds
3:35 PM 75.7 °F 55.6 °F 49% 29.83 in 10.0 mi SSW 10.4 mph - N/A   Clear
3:55 PM 77.0 °F 55.4 °F 47% 29.80 in 10.0 mi SSW 10.4 mph 17.3 mph N/A   Clear
4:15 PM 76.1 °F 54.7 °F 47% 29.78 in 10.0 mi SSW 9.2 mph 18.4 mph N/A   Clear
4:35 PM 77.4 °F 54.5 °F 45% 29.78 in 10.0 mi SW 10.4 mph 18.4 mph N/A   Clear
4:55 PM 78.8 °F 51.6 °F 39% 29.77 in 10.0 mi SW 12.7 mph 20.7 mph N/A   Clear
5:15 PM 79.7 °F 49.6 °F 35% 29.76 in 10.0 mi SW 17.3 mph 21.9 mph N/A   Clear
5:35 PM 79.5 °F 47.1 °F 32% 29.75 in 10.0 mi SW 11.5 mph 19.6 mph N/A   Clear
5:55 PM 79.5 °F 45.5 °F 30% 29.76 in 10.0 mi WSW 12.7 mph 18.4 mph N/A   Clear
6:15 PM 79.2 °F 44.8 °F 30% 29.77 in 10.0 mi WSW 21.9 mph 29.9 mph N/A   Clear
6:35 PM 79.3 °F 44.4 °F 29% 29.78 in 10.0 mi WSW 21.9 mph 29.9 mph N/A   Clear
6:55 PM 77.7 °F 43.9 °F 30% 29.78 in 10.0 mi WSW 23.0 mph 34.5 mph N/A   Clear
7:15 PM 76.3 °F 44.6 °F 32% 29.78 in 10.0 mi West 16.1 mph 20.7 mph N/A   Clear
7:35 PM 75.2 °F 43.9 °F 33% 29.78 in 10.0 mi WSW 19.6 mph 28.8 mph N/A   Clear
7:55 PM 74.3 °F 43.7 °F 33% 29.79 in 10.0 mi WSW 19.6 mph 26.5 mph N/A   Clear
8:15 PM 74.3 °F 43.7 °F 33% 29.79 in 10.0 mi West 24.2 mph 29.9 mph N/A   Clear
8:35 PM 72.9 °F 44.8 °F 37% 29.79 in 10.0 mi WSW 18.4 mph 26.5 mph N/A   Scattered Clouds
8:55 PM 73.2 °F 45.0 °F 36% 29.80 in 10.0 mi WSW 23.0 mph 31.1 mph N/A   Mostly Cloudy
9:15 PM 72.7 °F 45.5 °F 38% 29.81 in 10.0 mi WSW 19.6 mph 27.6 mph N/A   Mostly Cloudy
9:35 PM 71.8 °F 46.0 °F 40% 29.81 in 10.0 mi WSW 16.1 mph 21.9 mph N/A   Mostly Cloudy
9:55 PM 71.4 °F 46.6 °F 41% 29.82 in 10.0 mi West 12.7 mph - N/A   Overcast
10:15 PM 70.0 °F 47.3 °F 44% 29.83 in 10.0 mi West 10.4 mph - N/A   Scattered Clouds
10:35 PM 68.7 °F 47.8 °F 47% 29.83 in 10.0 mi West 10.4 mph - N/A   Clear
10:55 PM 67.8 °F 48.2 °F 49% 29.84 in 10.0 mi WSW 15.0 mph - N/A   Clear
11:15 PM 67.5 °F 48.6 °F 51% 29.84 in 10.0 mi WSW 10.4 mph 16.1 mph N/A   Clear
11:35 PM 67.1 °F 48.6 °F 51% 29.85 in 10.0 mi West 10.4 mph 17.3 mph N/A   Clear
11:55 PM 66.0 °F 48.7 °F 54% 29.85 in 10.0 mi West 10.4 mph - N/A   Clear